Home > Weather > Seremban > Past weeks

Flag for Malaysia Weather for the Past 2 Weeks in Seremban, Malaysia

Now
81 °F

Passing clouds.


Feels Like: 85 °F
Forecast: 77 / 84 °F
Wind: 8 mph from Northeast

Location: Malacca

Current Time: Feb 9, 2016 at 10:59:25 PM

Latest Report: Feb 9, 2016 at 10:00 PM


Visibility: N/A

Pressure: 29.89 "Hg

Humidity: 79%

Dew point: 73 °F

Location of SerembanLocation

Historic Weather in Seremban — Graph

°F

Seremban Temperature Yesterday

Maximum temperature yesterday: 86 °F (at 1:00 PM)
Minimum temperature yesterday: 77 °F (at 3:00 AM)
Average temperature yesterday: 81 °F

High & Low Weather Summary for the Past Weeks

 TemperatureHumidityPressure
High95 °F (Jan 28, 5:00 PM)100% (Jan 26, 10:00 AM)29.98 "Hg (Jan 26, 10:00 AM)
Low75 °F (Feb 2, 6:00 AM)56% (Jan 30, 5:00 PM)29.74 "Hg (Feb 4, 5:00 PM)
Average82 °F84%29.85 "Hg
* Reported Jan 25 9:00 PM — Feb 9 9:00 PM, Seremban, Weather by CustomWeather, © 2016

Note: Actual official high and low records may vary slightly from our data, if they occured in-between our weather recording intervals... More about our weather records

Advertising

Seremban Weather History for the Previous 24 Hours

 ConditionsComfort  
Time TempWeatherWind HumidityBarometerVisibility
9:00 PM
Tue, Feb 9
82 °FPassing clouds.6 mph74%29.86 "HgN/A
8:00 PM82 °FPassing clouds.7 mph79%29.83 "HgN/A
7:00 PM86 °FPartly sunny.9 mph70%29.83 "HgN/A
6:00 PM88 °FBroken clouds.7 mph62%29.83 "HgN/A
5:00 PM88 °FBroken clouds.8 mph62%29.80 "HgN/A
4:00 PM90 °FPartly sunny.9 mph63%29.80 "HgN/A
3:00 PM90 °FBroken clouds.8 mph63%29.83 "HgN/A
2:00 PM90 °FPartly sunny.9 mph63%29.86 "HgN/A
1:00 PM86 °FPartly sunny.13 mph66%29.89 "HgN/A
12:00 PM84 °FPartly sunny.12 mph70%29.92 "HgN/A
11:00 AM82 °FPartly sunny.12 mph74%29.92 "Hg6 mi
10:00 AM81 °FPartly sunny.10 mph79%29.92 "Hg6 mi
9:00 AM77 °FPartly sunny.9 mph83%29.92 "Hg6 mi
8:00 AM77 °FBroken clouds.6 mph83%29.89 "Hg6 mi
7:00 AM77 °FPartly cloudy.8 mph83%29.86 "Hg6 mi
6:00 AM77 °FPartly cloudy.12 mph83%29.86 "HgN/A
5:00 AM77 °FPartly cloudy.7 mph83%29.83 "HgN/A
4:00 AM77 °FPartly cloudy.9 mph83%29.86 "HgN/A
3:00 AM77 °FPartly cloudy.8 mph83%29.86 "HgN/A
2:00 AM77 °FPartly cloudy.8 mph89%29.89 "HgN/A
1:00 AM77 °FPassing clouds.6 mph89%29.92 "HgN/A
12:00 AM79 °FPassing clouds.7 mph84%29.92 "HgN/A
11:00 PM
Mon, Feb 8
79 °FPartly cloudy.5 mph84%29.92 "HgN/A
10:00 PM79 °FPartly cloudy.5 mph84%29.89 "HgN/A
Weather by CustomWeather, © 2016

See weather overviewHow to use our weather pages